This is the latest recevied weather packets stored in our database for station/object KD9ZDW. If no packets are shown the sender has not sent any weather packets the latest 10 day(s).
| Time | Temp. | Humidity | Pressure | Rain* | Wind** | Luminosity | Snow |
|---|---|---|---|---|---|---|---|
| 1777397966 | 14.44° C | 74% | 1015.8 hPa | 0 mm | - | 262 W/m² | - |
| 1777397661 | 14.44° C | 74% | 1015.9 hPa | 0 mm | - | 295 W/m² | - |
| 1777397357 | 13.89° C | 75% | 1016 hPa | 0 mm | - | 814 W/m² | - |
| 1777397054 | 13.89° C | 76% | 1016.2 hPa | 0 mm | - | 296 W/m² | - |
| 1777396751 | 13.89° C | 77% | 1016 hPa | 0 mm | - | 236 W/m² | - |
| 1777396447 | 13.89° C | 78% | 1015.7 hPa | 0 mm | - | 226 W/m² | - |
| 1777396144 | 13.89° C | 78% | 1015.7 hPa | 0 mm | - | 205 W/m² | - |
| 1777395840 | 13.89° C | 78% | 1015.9 hPa | 0 mm | - | 175 W/m² | - |
| 1777395535 | 13.89° C | 79% | 1015.9 hPa | 0 mm | - | 160 W/m² | - |
| 1777395232 | 13.89° C | 78% | 1015.8 hPa | 0 mm | - | 175 W/m² | - |
| 1777394930 | 13.33° C | 78% | 1015.9 hPa | 0 mm | - | 236 W/m² | - |
| 1777394625 | 13.33° C | 81% | 1015.7 hPa | 0 mm | - | 239 W/m² | - |
| 1777394322 | 12.78° C | 81% | 1015.9 hPa | 0 mm | - | 112 W/m² | - |
| 1777394019 | 13.33° C | 80% | 1015.8 hPa | 0 mm | - | 111 W/m² | - |
| 1777393718 | 13.33° C | 81% | 1015.6 hPa | 0 mm | - | 110 W/m² | - |
| 1777393414 | 13.33° C | 81% | 1015.8 hPa | 0 mm | - | 98 W/m² | - |
| 1777393110 | 13.33° C | 80% | 1015.5 hPa | 0 mm | - | 102 W/m² | - |
| 1777392807 | 13.33° C | 80% | 1015.6 hPa | 0 mm | - | 109 W/m² | - |
| 1777392502 | 13.33° C | 81% | 1015.7 hPa | 0 mm | - | 100 W/m² | - |
| 1777392198 | 13.33° C | 81% | 1015.4 hPa | 0 mm | - | 108 W/m² | - |
| 1777391894 | 13.33° C | 81% | 1015.2 hPa | 0 mm | - | 95 W/m² | - |
| 1777391589 | 13.33° C | 81% | 1015.3 hPa | 0 mm | - | 102 W/m² | - |
| 1777391285 | 13.33° C | 81% | 1015.2 hPa | 0 mm | - | 95 W/m² | - |
| 1777390982 | 13.33° C | 81% | 1015.2 hPa | 0 mm | - | 127 W/m² | - |
| 1777390678 | 13.33° C | 81% | 1015.2 hPa | 0 mm | - | 121 W/m² | - |
* Rain latest hour (hover to see other rain measurements)
** Current wind speed in m/s (hover to see current wind gust speed)